CW0146 Weather Reports


time (UTC)temp
C
wind
direction
speed
KPH
gust
KPH
rain 1hr
cm
rain 24hr
cm
rain mn
cm
humidity
%
barometer
mb
20260507010454 17 7 1.6 3.2 0.00 0.00 0.00 83 1014.0
20260507005954 17 57 1.6 4.8 0.00 0.00 0.00 84 1013.0
20260507005454 17 39 1.6 3.2 0.00 0.00 0.00 83 1013.0
20260507004954 17 43 1.6 3.2 0.00 0.00 0.00 83 1013.0
20260507004454 17 316 3.2 6.4 0.00 0.00 0.00 83 1013.0
20260507003954 17 344 3.2 6.4 0.00 0.00 0.00 83 1013.0
20260507003456 17 337 1.6 3.2 0.00 0.00 0.00 83 1013.0
20260507002954 17 2 3.2 8.0 0.00 0.00 0.00 83 1013.0
20260507002454 16 355 1.6 3.2 0.00 0.00 0.00 83 1013.0
20260507001954 16 18 1.6 3.2 0.00 0.00 0.00 83 1013.0
20260507001455 16 13 3.2 6.4 0.00 0.00 0.00 83 1013.0
20260507000954 16 34 1.6 3.2 0.00 0.00 0.00 83 1013.0
20260507000454 16 321 1.6 9.7 0.00 0.00 0.00 83 1013.0
20260506235954 16 337 1.6 6.4 0.00 0.00 0.00 83 1013.0
20260506235454 16 0 1.6 4.8 0.00 0.00 0.00 83 1013.0
20260506234954 16 331 3.2 9.7 0.00 0.00 0.00 83 1013.0
20260506234455 16 1 1.6 6.4 0.00 0.00 0.00 83 1013.0
20260506233954 16 341 3.2 8.0 0.00 0.00 0.00 83 1013.0
20260506233455 16 339 3.2 6.4 0.00 0.00 0.00 83 1013.0
20260506232954 16 28 1.6 6.4 0.00 0.00 0.00 83 1013.0
20260506232454 16 54 3.2 6.4 0.00 0.00 0.00 83 1013.0
20260506231955 16 336 4.8 6.4 0.00 0.00 0.00 83 1013.0
20260506231454 16 14 3.2 4.8 0.00 0.00 0.00 83 1013.0
20260506230954 16 21 1.6 4.8 0.00 0.00 0.00 83 1013.0
20260506230454 16 311 1.6 4.8 0.00 0.00 0.00 83 1013.0
20260506225954 16 354 3.2 6.4 0.00 0.00 0.00 83 1013.0
20260506225455 16 357 3.2 9.7 0.00 0.00 0.00 83 1013.0
20260506224954 16 38 1.6 3.2 0.00 0.00 0.00 83 1013.0
20260506224456 16 42 3.2 6.4 0.00 0.00 0.00 83 1013.0
20260506223954 16 348 3.2 8.0 0.00 0.00 0.00 83 1013.0
20260506223455 16 356 3.2 9.7 0.00 0.00 0.00 84 1013.0
20260506222954 16 349 6.4 12.9 0.00 0.00 0.00 83 1013.0
20260506222454 16 334 3.2 8.0 0.00 0.00 0.00 83 1013.0
20260506221954 16 8 3.2 8.0 0.00 0.00 0.00 83 1013.0
20260506221454 16 67 3.2 4.8 0.00 0.00 0.00 83 1013.0
20260506220957 17 356 3.2 8.0 0.00 0.00 0.00 82 1013.0
20260506220454 17 31 3.2 9.7 0.00 0.00 0.00 82 1013.0
20260506215954 17 5 3.2 8.0 0.00 0.00 0.00 81 1013.0
20260506215454 17 40 1.6 4.8 0.00 0.00 0.00 81 1013.0
20260506214955 17 348 3.2 9.7 0.00 0.00 0.00 81 1013.0
20260506214455 17 353 3.2 9.7 0.00 0.00 0.00 81 1012.0
20260506213954 17 5 1.6 4.8 0.00 0.00 0.00 81 1013.0
20260506213454 17 11 3.2 6.4 0.00 0.00 0.00 81 1013.0
20260506212954 17 309 4.8 9.7 0.00 0.00 0.00 81 1013.0
20260506212455 17 5 3.2 8.0 0.00 0.00 0.00 81 1013.0
20260506211954 17 338 3.2 9.7 0.00 0.00 0.00 81 1013.0
20260506211454 17 333 4.8 12.9 0.00 0.00 0.00 81 1013.0
20260506210954 17 355 3.2 12.9 0.00 0.00 0.00 81 1013.0
20260506210454 17 332 3.2 9.7 0.00 0.00 0.00 81 1013.0
20260506205954 17 317 3.2 9.7 0.00 0.00 0.00 80 1013.0
20260506205456 17 320 3.2 6.4 0.00 0.00 0.00 81 1013.0
20260506204954 17 300 4.8 9.7 0.00 0.00 0.00 80 1013.0
20260506204454 17 351 1.6 4.8 0.00 0.00 0.00 80 1013.0
20260506203954 18 307 4.8 9.7 0.00 0.00 0.00 79 1013.0
20260506203454 18 326 3.2 6.4 0.00 0.00 0.00 80 1013.0
20260506202954 18 334 4.8 9.7 0.00 0.00 0.00 79 1013.0
20260506202454 18 327 3.2 9.7 0.00 0.00 0.00 79 1013.0
20260506201954 19 338 4.8 12.9 0.00 0.00 0.00 78 1013.0
20260506201454 19 352 4.8 6.4 0.00 0.00 0.00 77 1013.0
20260506200954 20 340 3.2 4.8 0.00 0.00 0.00 78 1013.0
20260506200454 20 336 3.2 8.0 0.00 0.00 0.00 78 1012.0
20260506195955 20 330 4.8 9.7 0.00 0.00 0.00 78 1012.0
20260506195455 20 324 3.2 6.4 0.00 0.00 0.00 78 1012.0
20260506194954 20 311 3.2 8.0 0.00 0.00 0.00 80 1013.0
20260506194454 20 333 6.4 11.3 0.00 0.00 0.00 79 1013.0
20260506193954 20 324 6.4 12.9 0.00 0.00 0.00 78 1012.0
20260506193455 21 329 4.8 8.0 0.00 0.00 0.00 78 1012.0
20260506192954 21 0 3.2 6.4 0.00 0.00 0.00 76 1012.0
20260506192454 21 357 3.2 6.4 0.00 0.00 0.00 77 1012.0
20260506191954 21 340 4.8 11.3 0.00 0.00 0.00 76 1012.0
20260506191455 22 356 3.2 4.8 0.00 0.00 0.00 76 1013.0
20260506190954 22 15 1.6 4.8 0.00 0.00 0.00 75 1013.0
20260506190454 22 16 1.6 8.0 0.00 0.00 0.00 74 1013.0
20260506185954 23 18 0.0 1.6 0.00 0.00 0.00 74 1013.0
20260506185455 23 356 1.6 4.8 0.00 0.00 0.00 75 1013.0
20260506184954 23 347 1.6 6.4 0.00 0.00 0.00 73 1012.0
20260506184454 23 48 3.2 4.8 0.00 0.00 0.00 74 1012.0
20260506183954 23 344 3.2 11.3 0.00 0.00 0.00 72 1012.0
20260506183454 23 291 3.2 6.4 0.00 0.00 0.00 74 1012.0
20260506182954 24 328 3.2 6.4 0.00 0.00 0.00 71 1012.0
20260506182454 23 15 3.2 8.0 0.00 0.00 0.00 73 1012.0
20260506181954 23 319 3.2 6.4 0.00 0.00 0.00 73 1012.0
20260506181454 23 333 3.2 4.8 0.00 0.00 0.00 73 1012.0
20260506180954 23 20 1.6 3.2 0.00 0.00 0.00 75 1012.0
20260506180456 23 51 0.0 1.6 0.00 0.00 0.00 74 1012.0
20260506175954 22 308 1.6 4.8 0.00 0.00 0.00 76 1011.0
20260506175454 21 72 1.6 4.8 0.00 0.00 0.00 78 1011.0
20260506174954 21 311 1.6 4.8 0.00 0.00 0.00 79 1011.0
20260506174454 21 62 4.8 6.4 0.00 0.00 0.00 77 1011.0
20260506173954 20 67 3.2 4.8 0.00 0.00 0.00 79 1011.0
20260506173454 20 51 4.8 8.0 0.00 0.00 0.00 78 1011.0
20260506172954 20 32 3.2 3.2 0.00 0.00 0.00 79 1012.0
20260506172455 20 41 3.2 8.0 0.00 0.00 0.00 80 1012.0
20260506171955 20 54 3.2 4.8 0.00 0.00 0.00 79 1011.0
20260506171456 20 24 1.6 3.2 0.00 0.00 0.00 82 1012.0
20260506170954 19 59 1.6 6.4 0.00 0.00 0.00 83 1011.0
20260506170454 18 56 3.2 6.4 0.00 0.00 0.00 84 1012.0
20260506165954 18 47 3.2 4.8 0.00 0.00 0.00 84 1012.0
20260506165455 18 55 3.2 4.8 0.00 0.00 0.00 85 1012.0
20260506164954 18 66 1.6 3.2 0.00 0.00 0.00 86 1012.0
20260506164454 18 36 1.6 4.8 0.00 0.00 0.00 87 1012.0
20260506163954 17 2 1.6 3.2 0.00 0.00 0.00 89 1012.0
20260506163454 17 80 1.6 3.2 0.00 0.00 0.00 89 1013.0
20260506162954 17 14 1.6 3.2 0.00 0.00 0.00 90 1013.0
20260506162456 16 42 1.6 3.2 0.00 0.00 0.00 91 1013.0
20260506161954 16 63 3.2 6.4 0.00 0.00 0.00 92 1013.0
20260506161453 16 70 3.2 4.8 0.00 0.00 0.00 92 1014.0
20260506160954 16 35 3.2 9.7 0.00 0.00 0.00 93 1014.0
20260506160454 16 2 4.8 11.3 0.00 0.00 0.00 93 1014.0
20260506155955 16 38 3.2 9.7 0.00 0.00 0.00 93 1014.0
20260506155455 17 346 4.8 9.7 0.00 0.00 0.00 93 1014.0
20260506154955 17 2 3.2 9.7 0.00 0.00 0.00 93 1014.0
20260506154454 17 321 4.8 9.7 0.00 0.00 0.00 92 1014.0
20260506153954 17 10 3.2 9.7 0.00 0.00 0.00 92 1014.0
20260506153454 18 344 4.8 14.5 0.00 0.00 0.00 91 1014.0
20260506152954 18 346 4.8 14.5 0.00 0.00 0.00 91 1014.0
20260506152455 18 348 3.2 12.9 0.00 0.00 0.00 90 1013.0
20260506151954 18 14 1.6 4.8 0.00 0.00 0.00 90 1013.0
20260506151454 18 47 3.2 4.8 0.00 0.00 0.00 90 1013.0
20260506150954 19 337 3.2 9.7 0.00 0.00 0.00 90 1013.0
20260506150454 19 16 1.6 4.8 0.00 0.00 0.00 89 1013.0
20260506145954 20 16 3.2 6.4 0.00 0.00 0.00 88 1013.0
20260506145456 21 351 3.2 6.4 0.00 0.00 0.00 87 1012.0
20260506144954 22 340 4.8 9.7 0.00 0.00 0.00 85 1012.0
20260506144457 25 337 4.8 12.9 0.00 0.00 0.00 81 1012.0
20260506143954 26 318 1.6 3.2 0.00 0.00 0.00 85 1011.0
20260506143456 26 210 1.6 3.2 0.00 0.00 0.00 86 1011.0
20260506142954 25 212 1.6 3.2 0.00 0.00 0.00 86 1010.0
20260506142455 25 100 0.0 1.6 0.00 0.00 0.00 87 1010.0
20260506141954 25 80 1.6 3.2 0.00 0.00 0.00 87 1010.0
20260506141454 25 173 1.6 4.8 0.00 0.00 0.00 88 1010.0
20260506140954 25 77 1.6 4.8 0.00 0.00 0.00 88 1010.0
20260506140455 25 170 1.6 4.8 0.00 0.00 0.00 89 1010.0
20260506140000 25 106 0.0 1.6 0.00 0.00 0.00 90 1010.0
20260506135455 25 88 3.2 6.4 0.00 0.00 0.00 90 1010.0
20260506134955 25 55 0.0 1.6 0.00 0.00 0.00 90 1010.0
20260506134455 25 90 3.2 6.4 0.00 0.00 0.00 90 1010.0
20260506133955 24 168 0.0 1.6 0.00 0.00 0.00 90 1010.0
20260506133454 24 189 1.6 4.8 0.00 0.00 0.00 91 1010.0
20260506132955 24 146 1.6 3.2 0.00 0.00 0.00 92 1010.0
20260506132454 24 195 0.0 3.2 0.00 0.00 0.00 92 1010.0
20260506131955 23 133 1.6 4.8 0.00 0.00 0.00 93 1010.0
20260506131454 23 148 1.6 3.2 0.00 0.00 0.00 94 1010.0
20260506130954 23 155 1.6 6.4 0.00 0.00 0.00 94 1010.0
20260506130454 23 49 0.0 3.2 0.00 0.00 0.00 94 1010.0
20260506125954 23 87 1.6 4.8 0.00 0.00 0.00 95 1010.0
20260506125454 23 99 1.6 3.2 0.00 0.00 0.00 95 1010.0
20260506124954 23 89 1.6 3.2 0.00 0.00 0.00 95 1010.0
20260506124454 23 111 0.0 3.2 0.00 0.00 0.00 95 1010.0
20260506123954 23 96 1.6 4.8 0.00 0.00 0.00 95 1010.0
20260506123454 23 75 0.0 3.2 0.00 0.00 0.00 95 1010.0
20260506122954 23 75 1.6 3.2 0.00 0.00 0.00 95 1010.0
20260506122454 23 67 0.0 1.6 0.00 0.00 0.00 95 1010.0
20260506121954 23 72 1.6 3.2 0.00 0.00 0.00 94 1010.0
20260506121454 23 109 1.6 3.2 0.00 0.00 0.00 94 1010.0
20260506120955 23 109 1.6 3.2 0.00 0.00 0.00 94 1010.0
20260506120454 23 68 0.0 3.2 0.00 0.00 0.00 94 1010.0
20260506115954 23 73 0.0 1.6 0.00 0.00 0.00 94 1009.0
20260506115455 23 40 0.0 1.6 0.00 0.00 0.00 94 1009.0
20260506114954 23 165 0.0 1.6 0.00 0.00 0.00 94 1009.0
20260506114456 23 138 1.6 3.2 0.00 0.00 0.00 94 1009.0
20260506113954 23 86 0.0 3.2 0.00 0.00 0.00 94 1009.0
20260506113454 23 119 0.0 1.6 0.00 0.00 0.00 94 1009.0
20260506112955 23 162 0.0 0.0 0.00 0.00 0.00 94 1009.0
20260506112454 23 171 1.6 3.2 0.00 0.00 0.00 94 1009.0
20260506111954 23 337 0.0 0.0 0.00 0.00 0.00 94 1009.0
20260506111454 23 168 0.0 1.6 0.00 0.00 0.00 94 1009.0
20260506110954 23 200 0.0 3.2 0.00 0.00 0.00 93 1009.0
20260506110454 23 194 0.0 3.2 0.00 0.00 0.00 93 1009.0
20260506105954 23 75 0.0 3.2 0.00 0.00 0.00 93 1009.0
20260506105455 23 98 0.0 1.6 0.00 0.00 0.00 93 1009.0
20260506104954 23 187 3.2 4.8 0.00 0.00 0.00 93 1009.0
20260506104454 23 202 1.6 3.2 0.00 0.00 0.00 93 1009.0
20260506103954 23 189 3.2 4.8 0.00 0.00 0.00 93 1009.0
20260506103454 23 198 0.0 3.2 0.00 0.00 0.00 93 1009.0
20260506102954 23 189 1.6 3.2 0.00 0.00 0.00 92 1009.0
20260506102454 23 191 1.6 3.2 0.00 0.00 0.00 92 1009.0
20260506101954 23 182 3.2 3.2 0.00 0.00 0.00 92 1009.0
20260506101454 23 160 3.2 3.2 0.00 0.00 0.00 92 1009.0
20260506100954 23 174 1.6 4.8 0.00 0.00 0.00 92 1009.0
20260506100454 23 192 4.8 6.4 0.00 0.00 0.00 92 1009.0
20260506095954 23 158 3.2 3.2 0.00 0.00 0.00 92 1009.0
20260506095454 23 198 3.2 6.4 0.00 0.00 0.00 92 1009.0
20260506094955 23 189 1.6 3.2 0.00 0.00 0.00 92 1009.0
20260506094454 23 179 3.2 6.4 0.00 0.00 0.00 92 1009.0
20260506093954 23 162 3.2 6.4 0.00 0.00 0.00 92 1009.0
20260506093454 23 134 1.6 4.8 0.00 0.00 0.00 92 1009.0
20260506092954 23 148 3.2 8.0 0.00 0.00 0.00 92 1009.0
20260506092454 23 203 4.8 9.7 0.00 0.00 0.00 92 1009.0
20260506091956 23 151 3.2 6.4 0.00 0.00 0.00 92 1009.0
20260506091454 23 177 3.2 6.4 0.00 0.00 0.00 92 1008.0
20260506090955 23 180 3.2 6.4 0.00 0.00 0.00 92 1008.0
20260506090454 23 148 1.6 4.8 0.00 0.00 0.00 92 1008.0
20260506085954 23 174 3.2 6.4 0.00 0.00 0.00 92 1008.0
20260506085459 23 194 1.6 4.8 0.00 0.00 0.00 92 1008.0
20260506084954 23 161 3.2 3.2 0.00 0.00 0.00 92 1008.0
20260506084454 23 173 4.8 6.4 0.00 0.00 0.00 92 1008.0
20260506083955 23 194 3.2 6.4 0.00 0.00 0.00 92 1008.0
20260506083455 23 134 3.2 4.8 0.00 0.00 0.00 91 1008.0
20260506082954 24 174 4.8 9.7 0.00 0.00 0.00 91 1008.0
20260506082454 23 181 8.0 14.5 0.00 0.00 0.00 91 1008.0
20260506081955 24 178 3.2 8.0 0.00 0.00 0.00 91 1008.0
20260506081454 24 170 4.8 9.7 0.00 0.00 0.00 91 1008.0
20260506080954 24 200 4.8 9.7 0.00 0.00 0.00 91 1008.0
20260506080454 24 159 4.8 8.0 0.00 0.00 0.00 91 1008.0
20260506073457 24 185 3.2 4.8 0.00 0.00 0.00 91 1008.0
20260506072954 24 174 3.2 6.4 0.00 0.00 0.00 91 1008.0
20260506072454 24 177 4.8 9.7 0.00 0.00 0.00 91 1008.0
20260506071954 24 182 3.2 6.4 0.00 0.00 0.00 91 1009.0
20260506071454 24 170 6.4 12.9 0.00 0.00 0.00 91 1009.0
20260506070954 24 173 4.8 12.9 0.00 0.00 0.00 91 1009.0
20260506070454 24 168 8.0 14.5 0.00 0.00 0.00 91 1009.0
20260506062454 24 147 4.8 8.0 0.00 0.00 0.00 91 1009.0
20260506061954 24 106 3.2 6.4 0.00 0.00 0.00 91 1009.0
20260506061454 24 185 3.2 6.4 0.00 0.00 0.00 91 1008.0
20260506060954 24 198 3.2 8.0 0.00 0.00 0.00 91 1008.0
20260506060453 24 191 3.2 9.7 0.00 0.00 0.00 92 1008.0
20260506050955 24 171 3.2 8.0 0.00 0.00 0.00 91 1009.0
20260506050453 24 114 3.2 6.4 0.00 0.00 0.00 91 1009.0
20260506044954 24 176 1.6 4.8 0.00 0.00 0.00 91 1009.0
20260506044454 24 130 1.6 6.4 0.00 0.00 0.00 91 1009.0
20260506043954 24 104 1.6 4.8 0.00 0.00 0.00 91 1009.0
20260506043454 24 156 1.6 3.2 0.00 0.00 0.00 90 1009.0
20260506042954 24 143 3.2 4.8 0.00 0.00 0.00 90 1009.0
20260506042454 24 124 4.8 9.7 0.00 0.00 0.00 90 1009.0
20260506041954 24 120 3.2 4.8 0.00 0.00 0.00 90 1009.0
20260506041454 24 147 1.6 3.2 0.00 0.00 0.00 90 1009.0
20260506040954 24 146 3.2 6.4 0.00 0.00 0.00 89 1008.0
20260506040454 24 191 3.2 8.0 0.00 0.00 0.00 89 1008.0
20260506035954 24 197 1.6 6.4 0.00 0.00 0.00 89 1008.0
20260506035454 24 135 3.2 6.4 0.00 0.00 0.00 89 1008.0
20260506034954 25 124 1.6 3.2 0.00 0.00 0.00 89 1008.0
20260506034454 25 173 3.2 4.8 0.00 0.00 0.00 89 1008.0
20260506033955 25 150 1.6 6.4 0.00 0.00 0.00 88 1008.0
20260506033454 25 102 4.8 8.0 0.00 0.00 0.00 88 1008.0
20260506032954 25 176 1.6 3.2 0.00 0.00 0.00 88 1008.0
20260506032454 25 144 0.0 3.2 0.00 0.00 0.00 88 1008.0
20260506031954 25 111 1.6 3.2 0.00 0.00 0.00 88 1008.0
20260506031454 25 176 1.6 3.2 0.00 0.00 0.00 87 1008.0
20260506030954 25 112 1.6 6.4 0.00 0.00 0.00 87 1008.0
20260506030454 25 83 3.2 4.8 0.00 0.00 0.00 87 1008.0
20260506025954 25 133 3.2 6.4 0.00 0.00 0.00 87 1008.0
20260506025454 25 153 1.6 3.2 0.00 0.00 0.00 86 1008.0
20260506024954 25 110 3.2 6.4 0.00 0.00 0.00 86 1008.0
20260506024454 25 171 1.6 3.2 0.00 0.00 0.00 85 1008.0
20260506023954 25 139 1.6 3.2 0.00 0.00 0.00 85 1007.0
20260506023454 26 136 3.2 6.4 0.00 0.00 0.00 84 1007.0
20260506022955 26 102 3.2 6.4 0.00 0.00 0.00 83 1007.0
20260506022454 26 183 1.6 3.2 0.00 0.00 0.00 83 1007.0
20260506021954 26 123 1.6 4.8 0.00 0.00 0.00 82 1007.0
20260506021454 26 134 3.2 6.4 0.00 0.00 0.00 82 1007.0
20260506020955 26 142 1.6 4.8 0.00 0.00 0.00 82 1007.0
20260506020456 26 130 1.6 3.2 0.00 0.00 0.00 82 1007.0
20260506015954 26 95 3.2 9.7 0.00 0.00 0.00 81 1007.0
20260506015454 26 77 1.6 4.8 0.00 0.00 0.00 81 1007.0
20260506014954 26 107 1.6 3.2 0.00 0.00 0.00 81 1007.0
20260506014454 26 89 1.6 3.2 0.00 0.00 0.00 81 1007.0
20260506013954 26 105 1.6 6.4 0.00 0.00 0.00 81 1007.0
20260506013454 26 156 3.2 6.4 0.00 0.00 0.00 81 1007.0
20260506012954 26 98 0.0 3.2 0.00 0.00 0.00 80 1007.0
20260506012454 26 72 1.6 4.8 0.00 0.00 0.00 80 1007.0
20260506011956 26 120 1.6 4.8 0.00 0.00 0.00 79 1007.0
20260506011455 27 101 3.2 6.4 0.00 0.00 0.00 79 1007.0
20260506010954 27 116 1.6 3.2 0.00 0.00 0.00 78 1007.0